When you browse on this site, cookies collect data to enhance your experience and personalize the content and advertising you see.
Visit our Privacy Policy to learn more. By continuing to use the site, you agree to this use of cookies and data.
  • In Portugal
  • List of Countries
  • For 7 days
  • Water Temperature
  • Satellite Maps
  • Weather Map
  • Weather Widgets
  • user-avatar
    Login

    Hourly Weather Rundu

    Today, 16 December, Sunday

    Time Temperature Precipitation Wind Pressure Humidity
    00:00 +26°C° 0 mm 2 mps 668 mmHg 35%
    01:00 +25°C° 0 mm 2 mps 668 mmHg 38%
    02:00 +25°C° 0 mm 2 mps 668 mmHg 42%
    03:00 +24°C° 0 mm 1 mps 667 mmHg 45%
    04:00 +24°C° 0 mm 1 mps 667 mmHg 48%
    05:00 +25°C° 0 mm 2 mps 668 mmHg 45%
    06:00 +27°C° 0 mm 2 mps 669 mmHg 43%
    07:00 +29°C° 0 mm 2 mps 669 mmHg 40%
    08:00 +33°C° 0 mm 3 mps 670 mmHg 34%
    09:00 +35°C° 0 mm 3 mps 670 mmHg 28%
    10:00 +38°C° 0 mm 3 mps 670 mmHg 22%
    11:00 +38°C° 0 mm 3 mps 669 mmHg 20%
    12:00 +39°C° 0 mm 3 mps 669 mmHg 18%
    13:00 +41°C° 0 mm 4 mps 668 mmHg 16%
    14:00 +39°C° 0 mm 3 mps 667 mmHg 17%
    15:00 +39°C° 0 mm 3 mps 667 mmHg 17%
    16:00 +39°C° 0 mm 3 mps 666 mmHg 17%
    17:00 +36°C° 0 mm 2 mps 666 mmHg 20%
    18:00 +34°C° 0 mm 2 mps 666 mmHg 22%
    19:00 +31°C° 0 mm 1 mps 666 mmHg 25%
    20:00 +31°C° 0 mm 1 mps 666 mmHg 25%
    21:00 +30°C° 0 mm 1 mps 667 mmHg 26%
    22:00 +30°C° 0 mm 1 mps 667 mmHg 26%
    23:00 +29°C° 0 mm 1 mps 667 mmHg 28%

    Tomorrow, 17 December, Monday

    Time Temperature Precipitation Wind Pressure Humidity
    00:00 +29°C° 0 mm 2 mps 667 mmHg 30%
    01:00 +28°C° 0 mm 3 mps 667 mmHg 32%
    02:00 +27°C° 0 mm 3 mps 667 mmHg 40%
    03:00 +26°C° 0 mm 3 mps 667 mmHg 47%
    04:00 +25°C° 0 mm 3 mps 667 mmHg 54%
    05:00 +27°C° 0 mm 3 mps 667 mmHg 53%
    06:00 +28°C° 0 mm 3 mps 668 mmHg 52%
    07:00 +29°C° 0 mm 3 mps 668 mmHg 50%
    08:00 +31°C° 0 mm 3 mps 669 mmHg 42%
    09:00 +35°C° 0 mm 3 mps 669 mmHg 34%
    10:00 +37°C° 0 mm 3 mps 669 mmHg 26%
    11:00 +37°C° 0 mm 3 mps 668 mmHg 25%
    12:00 +37°C° 0 mm 2 mps 668 mmHg 23%
    13:00 +37°C° 0 mm 2 mps 667 mmHg 22%
    14:00 +37°C° 0 mm 2 mps 667 mmHg 22%
    15:00 +37°C° 0 mm 2 mps 666 mmHg 21%
    16:00 +36°C° 0 mm 1 mps 666 mmHg 21%
    17:00 +34°C° 0 mm 1 mps 666 mmHg 23%
    18:00 +33°C° 0 mm 1 mps 666 mmHg 25%
    19:00 +31°C° 0 mm 1 mps 666 mmHg 27%
    20:00 +31°C° 0 mm 2 mps 667 mmHg 30%
    21:00 +30°C° 0 mm 2 mps 667 mmHg 32%
    22:00 +29°C° 0 mm 3 mps 668 mmHg 35%
    23:00 +28°C° 0 mm 3 mps 667 mmHg 43%

    Day after tomorrow, 18 December, Tuesday

    Time Temperature Precipitation Wind Pressure Humidity
    00:00 +26°C° 0 mm 2 mps 666 mmHg 50%
    01:00 +24°C° 0 mm 2 mps 666 mmHg 57%
    02:00 +24°C° 0 mm 2 mps 666 mmHg 60%
    03:00 +23°C° 0 mm 2 mps 666 mmHg 63%
    04:00 +21°C° 0 mm 2 mps 666 mmHg 66%
    05:00 +24°C° 0 mm 2 mps 666 mmHg 62%
    06:00 +25°C° 0 mm 3 mps 667 mmHg 57%
    07:00 +27°C° 0 mm 3 mps 668 mmHg 52%
    08:00 +30°C° 0 mm 3 mps 668 mmHg 44%
    09:00 +34°C° 0 mm 2 mps 669 mmHg 36%
    10:00 +37°C° 0 mm 2 mps 669 mmHg 28%
    11:00 +37°C° 0 mm 2 mps 668 mmHg 26%
    12:00 +37°C° 0 mm 2 mps 667 mmHg 25%
    13:00 +37°C° 0 mm 2 mps 667 mmHg 23%
    14:00 +37°C° 0 mm 2 mps 666 mmHg 23%
    15:00 +36°C° 0 mm 1 mps 666 mmHg 24%
    16:00 +36°C° 0 mm 1 mps 666 mmHg 24%
    17:00 +34°C° 0 mm 1 mps 665 mmHg 26%
    18:00 +32°C° 0 mm 1 mps 665 mmHg 29%
    19:00 +31°C° 0 mm 1 mps 665 mmHg 32%
    20:00 +30°C° 0 mm 1 mps 666 mmHg 33%
    21:00 +29°C° 0 mm 1 mps 666 mmHg 35%
    22:00 +28°C° 0 mm 1 mps 666 mmHg 37%
    23:00 +27°C° 0.1 mm 1 mps 666 mmHg 40%

    19 December, Wednesday

    Time Temperature Precipitation Wind Pressure Humidity
    00:00 +26°C° 0.1 mm 1 mps 665 mmHg 43%
    01:00 +25°C° 0.1 mm 1 mps 665 mmHg 46%
    02:00 +25°C° 0 mm 1 mps 665 mmHg 48%
    03:00 +24°C° 0 mm 1 mps 665 mmHg 49%
    04:00 +24°C° 0 mm 2 mps 665 mmHg 50%
    05:00 +25°C° 0 mm 2 mps 666 mmHg 47%
    06:00 +27°C° 0 mm 2 mps 666 mmHg 43%
    07:00 +28°C° 0 mm 2 mps 667 mmHg 40%
    08:00 +32°C° 0 mm 2 mps 668 mmHg 34%
    09:00 +35°C° 0 mm 1 mps 668 mmHg 28%
    10:00 +39°C° 0 mm 1 mps 669 mmHg 21%
    11:00 +39°C° 0 mm 1 mps 668 mmHg 21%
    12:00 +37°C° 0 mm 1 mps 667 mmHg 20%
    13:00 +37°C° 0 mm 1 mps 666 mmHg 20%
    14:00 +37°C° 0 mm 1 mps 666 mmHg 21%
    15:00 +36°C° 0 mm 1 mps 665 mmHg 21%
    16:00 +36°C° 0 mm 1 mps 665 mmHg 22%
    17:00 +34°C° 0 mm 1 mps 665 mmHg 25%
    18:00 +32°C° 0 mm 1 mps 665 mmHg 28%
    19:00 +31°C° 0 mm 1 mps 665 mmHg 31%
    20:00 +30°C° 0.1 mm 1 mps 666 mmHg 33%
    21:00 +29°C° 0.1 mm 1 mps 666 mmHg 35%
    22:00 +28°C° 0.1 mm 2 mps 666 mmHg 38%
    23:00 +27°C° 0 mm 2 mps 666 mmHg 42%

    20 December, Thursday

    Time Temperature Precipitation Wind Pressure Humidity
    00:00 +26°C° 0 mm 2 mps 665 mmHg 46%
    01:00 +25°C° 0 mm 2 mps 665 mmHg 50%
    02:00 +25°C° 0 mm 2 mps 664 mmHg 52%
    03:00 +24°C° 0 mm 2 mps 664 mmHg 54%
    04:00 +24°C° 0 mm 1 mps 664 mmHg 56%
    05:00 +25°C° 0 mm 2 mps 665 mmHg 52%
    06:00 +27°C° 0 mm 2 mps 666 mmHg 48%
    07:00 +28°C° 0 mm 2 mps 667 mmHg 44%
    08:00 +32°C° 0 mm 2 mps 667 mmHg 36%
    09:00 +36°C° 0 mm 2 mps 668 mmHg 29%
    10:00 +39°C° 0 mm 1 mps 668 mmHg 22%
    11:00 +40°C° 0 mm 1 mps 668 mmHg 20%
    12:00 +40°C° 0 mm 1 mps 667 mmHg 19%
    13:00 +41°C° 0 mm 1 mps 666 mmHg 17%
    14:00 +40°C° 0 mm 1 mps 666 mmHg 18%
    15:00 +40°C° 0 mm 1 mps 666 mmHg 18%
    16:00 +39°C° 0 mm 1 mps 665 mmHg 18%
    17:00 +36°C° 0 mm 1 mps 665 mmHg 22%
    18:00 +33°C° 0 mm 1 mps 665 mmHg 26%
    19:00 +31°C° 0 mm 1 mps 665 mmHg 30%
    20:00 +30°C° 0 mm 1 mps 665 mmHg 35%
    21:00 +28°C° 0 mm 1 mps 665 mmHg 39%
    22:00 +27°C° 0 mm 1 mps 665 mmHg 44%
    23:00 +27°C° 0 mm 1 mps 665 mmHg 45%

    21 December, Friday

    Time Temperature Precipitation Wind Pressure Humidity
    00:00 +27°C° 0 mm 1 mps 665 mmHg 46%
    01:00 +26°C° 0 mm 2 mps 664 mmHg 47%
    02:00 +26°C° 0.2 mm 2 mps 664 mmHg 50%
    03:00 +25°C° 0.2 mm 2 mps 665 mmHg 53%
    04:00 +25°C° 0.2 mm 2 mps 665 mmHg 55%
    05:00 +25°C° 0.3 mm 3 mps 665 mmHg 57%
    06:00 +25°C° 0.3 mm 3 mps 666 mmHg 59%
    07:00 +26°C° 0.3 mm 3 mps 667 mmHg 61%
    08:00 +29°C° 0 mm 3 mps 667 mmHg 50%
    09:00 +33°C° 0 mm 3 mps 668 mmHg 40%
    10:00 +37°C° 0 mm 3 mps 668 mmHg 30%
    11:00 +37°C° 0 mm 3 mps 667 mmHg 28%
    12:00 +38°C° 0 mm 3 mps 667 mmHg 26%
    13:00 +38°C° 0 mm 3 mps 666 mmHg 25%
    14:00 +38°C° 0 mm 3 mps 666 mmHg 25%
    15:00 +38°C° 0 mm 3 mps 665 mmHg 24%
    16:00 +38°C° 0 mm 2 mps 665 mmHg 24%
    17:00 +36°C° 0 mm 2 mps 665 mmHg 27%
    18:00 +35°C° 0 mm 2 mps 665 mmHg 30%
    19:00 +32°C° 0 mm 2 mps 665 mmHg 33%
    20:00 +31°C° 0 mm 2 mps 665 mmHg 36%
    21:00 +30°C° 0 mm 2 mps 666 mmHg 39%
    22:00 +29°C° 0 mm 2 mps 666 mmHg 42%
    23:00 +28°C° 0.1 mm 2 mps 665 mmHg 47%
    Show more